Flag Weather past 2 weeks in Brno, Czech Republic

Now
34 °F

Fog.


Feels Like: 27 °F
Forecast: 32 / 38 °F
Wind: 7 mph from East

Location: Brno / Turany

Current Time: Nov 29, 2014 at 1:38:26 AM

Latest Report: Nov 29, 2014 at 12:00 AM


Visibility: 2 mi

Pressure: 30.17 "Hg

Humidity: 92%

Dew point: 31 °F

Location of BrnoLocation

Historic Weather in Brno — Graph

°F

Brno temperature yesterday

Maximum temperature yesterday: 36 °F (at 5:00 PM)
Minimum temperature yesterday: 33 °F (at 2:00 AM)
Average temperature yesterday: 34 °F

Past Weeks' High & Low Weather Summary

 TemperatureHumidityPressure
High53 °F (Nov 15, 12:00 PM)98% (Nov 14, 9:00 AM)30.44 "Hg (Nov 14, 9:00 AM)
Low32 °F (Nov 26, 2:00 AM)66% (Nov 21, 6:00 PM)29.69 "Hg (Nov 16, 6:00 AM)
Average42 °F86%30.12 "Hg
* Reported Midnight between Nov 13 and Nov 14 — Midnight between Nov 28 and Nov 29, Brno, Weather by CustomWeather, © 2014

Note: Actual official high and low records may vary slightly from our data, if they occured in-between our weather recording intervals... More about our weather records

Advertising

Brno weather history for previous 24 hours

 ConditionsComfort  
Time TempWeatherWind HumidityBarometerVisibility
12:00 AM
Nov 29
34 °FFog.7 mph92%30.17 "Hg2 mi
11:00 PM
Nov 28
34 °FFog.6 mph93%30.17 "Hg2 mi
10:00 PM34 °FFog.6 mph92%30.16 "Hg1 mi
9:00 PM35 °FFog.6 mph92%30.16 "Hg2 mi
8:00 PM35 °FFog.3 mph89%30.16 "Hg5 mi
7:00 PM36 °FOvercast.3 mph86%30.15 "Hg6 mi
6:00 PM36 °FOvercast.3 mph85%30.14 "Hg6 mi
5:00 PM36 °FOvercast.3 mph84%30.13 "Hg6 mi
4:00 PM35 °FOvercast.6 mph84%30.12 "Hg7 mi
3:00 PM35 °FOvercast.3 mph84%30.11 "Hg7 mi
2:00 PM35 °FOvercast.5 mph86%30.11 "Hg7 mi
1:00 PM35 °FOvercast.3 mph86%30.11 "Hg6 mi
12:00 PM35 °FOvercast.5 mph85%30.12 "Hg6 mi
11:00 AM35 °FFog.3 mph87%30.12 "Hg6 mi
10:00 AM34 °FFog.3 mph88%30.13 "Hg6 mi
9:00 AM34 °FFog.3 mph88%30.12 "Hg4 mi
8:00 AM33 °FFog.2 mph89%30.11 "Hg4 mi
7:00 AM34 °FFog.5 mph87%30.10 "Hg5 mi
6:00 AM33 °FOvercast.3 mph87%30.09 "Hg6 mi
5:00 AM34 °FFog.3 mph87%30.09 "Hg6 mi
4:00 AM33 °FFog.5 mph87%30.09 "Hg6 mi
3:00 AM33 °FOvercast.5 mph86%30.08 "Hg6 mi
2:00 AM33 °FLight snow. Overcast.5 mph87%30.09 "Hg4 mi
1:00 AM34 °FLight snow. Overcast.6 mph83%30.09 "Hg6 mi
Weather by CustomWeather, © 2014

See weather overviewHow to use our weather pages